User: anonymous   Login
Location: Unspecified
(0.0000°N, 0.0000°E)
Time: 22:52:08
(UTC+00:00)
Language:

KMS 4 - Orbit

View from above orbital plane
View from above orbital plane
View from above satellite
View from above satellite

Ground track
Ground track

The orbit data is extracted from the following two-line orbital elements,

1 41332U 16009A   17113.91756609 +.00005730 +00000-0 +19626-3 0  9997
2 41332 097.4641 171.7062 0024558 208.1869 151.8044 15.30333228067521
Epoch (UTC): 23 April 2017 22:01:17
Eccentricity: 0.0024558
inclination: 97.4641°
perigee height: 458 km
apogee height: 491 km
right ascension of ascending node: 171.7062°
argument of perigee: 208.1869°
revolutions per day: 15.30333228
mean anomaly at epoch: 151.8044°
orbit number at epoch: 6752

The dashed part of the orbit path shows where the satellite is in the earth's shadow,  

DLR